PROGRESS-MS 08 (43211 NORAD) Tracking and Keplerian Element Data

This shows tracking and keplerian element data for the satellite.

Feedback or suggestion? Click here.




ElementValue
Catalog43211
NamePROGRESS-MS 08
Epoch Orbit2865
Epoch Day228.53850324
Epoch Year2018
RAAN77.9346
Inclination51.6409
Eccentricity0.0005863
Argument of Perigee63.3449
Mean Anonmoly27.1266
Mean Motion15.53840011
Decay Rate7.92E-06
L11 43211U 18019A 18228.53850324 .00000792 00000-0 19429-4 0 9998
L22 43211 51.6409 77.9346 0005863 63.3449 27.1266 15.53840011 28658

Live tracking and technical data element details for PROGRESS-MS 08 (NORAD 43211). PROGRESS-MS 08 can be tracked NOW for your location showing map with azimuth and elevation plus other details from your city location.

Track the satellite on the map from your city or location and see movement details for azimuth, elevation, latitude, longitude, range, height, and movement on the map or in text.







IsCatalogInMostPopularTable: catalog: 43211, numindb: 155
Update: records affected: 1



GetName: 43211 PROGRESS-MS 08

Hit Count: updated at: Fri, 17 Aug 2018 13:20:37 GMT